Time,TemperatureF,DewpointF,PressureIn,WindDirection,WindDirectionDegrees,WindSpeedMPH,WindSpeedGustMPH,Humidity,HourlyPrecipIn,Conditions,Clouds,dailyrainin,SoftwareType,DateUTC
2013-11-10 00:02:00,33.0,30.0,-100.00,NW,320,7.0,16.0,87,-99.99,,,-99.99,,2013-11-10 06:02:00,
2013-11-10 00:22:00,34.0,30.0,-100.00,NW,325,12.0,22.0,87,-99.99,,,-99.99,,2013-11-10 06:22:00,
2013-11-10 00:32:00,34.0,30.0,-100.00,NW,325,12.0,22.0,87,-99.99,,,-99.99,,2013-11-10 06:32:00,
2013-11-10 00:42:00,34.0,30.0,-100.00,NW,325,12.0,22.0,87,-99.99,,,-99.99,,2013-11-10 06:42:00,
2013-11-10 00:52:00,34.0,30.0,-100.00,NW,325,12.0,22.0,87,-99.99,,,-99.99,,2013-11-10 06:52:00,
2013-11-10 01:43:00,34.0,31.0,-100.00,NW,325,11.0,21.0,87,-99.99,,,-99.99,,2013-11-10 07:43:00,
2013-11-10 01:52:00,34.0,31.0,-100.00,NW,325,11.0,21.0,87,-99.99,,,-99.99,,2013-11-10 07:52:00,
2013-11-10 02:02:00,34.0,31.0,-100.00,NW,325,11.0,21.0,87,-99.99,,,-99.99,,2013-11-10 08:02:00,
2013-11-10 03:03:00,34.0,30.0,-100.00,NNW,330,13.0,23.0,86,-99.99,,,-99.99,,2013-11-10 09:03:00,
2013-11-10 03:22:00,34.0,30.0,-100.00,NNW,330,13.0,23.0,86,-99.99,,,-99.99,,2013-11-10 09:22:00,
2013-11-10 03:33:00,34.0,30.0,-100.00,NNW,330,13.0,23.0,86,-99.99,,,-99.99,,2013-11-10 09:33:00,
2013-11-10 03:43:00,34.0,30.0,-100.00,NNW,330,13.0,23.0,86,-99.99,,,-99.99,,2013-11-10 09:43:00,
2013-11-10 03:53:00,34.0,30.0,-100.00,NNW,330,13.0,23.0,86,-99.99,,,-99.99,,2013-11-10 09:53:00,
2013-11-10 04:23:00,34.0,30.0,-100.00,NNW,340,12.0,21.0,85,-99.99,,,-99.99,,2013-11-10 10:23:00,
2013-11-10 04:33:00,34.0,30.0,-100.00,NNW,340,12.0,21.0,85,-99.99,,,-99.99,,2013-11-10 10:33:00,
2013-11-10 04:42:00,34.0,30.0,-100.00,NNW,340,12.0,21.0,85,-99.99,,,-99.99,,2013-11-10 10:42:00,
2013-11-10 04:53:00,34.0,30.0,-100.00,NNW,340,12.0,21.0,85,-99.99,,,-99.99,,2013-11-10 10:53:00,
2013-11-10 05:02:00,34.0,30.0,-100.00,NNW,340,12.0,21.0,85,-99.99,,,-99.99,,2013-11-10 11:02:00,
2013-11-10 06:22:00,33.0,29.0,-100.00,NW,325,9.0,21.0,82,-99.99,,,-99.99,,2013-11-10 12:22:00,
2013-11-10 06:32:00,33.0,29.0,-100.00,NW,325,9.0,21.0,82,-99.99,,,-99.99,,2013-11-10 12:32:00,
2013-11-10 06:42:00,33.0,29.0,-100.00,NW,325,9.0,21.0,82,-99.99,,,-99.99,,2013-11-10 12:42:00,
2013-11-10 06:52:00,33.0,29.0,-100.00,NW,325,9.0,21.0,82,-99.99,,,-99.99,,2013-11-10 12:52:00,
2013-11-10 07:01:00,33.0,29.0,-100.00,NW,325,9.0,21.0,82,-99.99,,,-99.99,,2013-11-10 13:01:00,
2013-11-10 07:22:00,33.0,28.0,-100.00,NW,325,10.0,21.0,81,-99.99,,,-99.99,,2013-11-10 13:22:00,
2013-11-10 07:32:00,33.0,28.0,-100.00,NW,325,10.0,21.0,81,-99.99,,,-99.99,,2013-11-10 13:32:00,
2013-11-10 07:42:00,33.0,28.0,-100.00,NW,325,10.0,21.0,81,-99.99,,,-99.99,,2013-11-10 13:42:00,
2013-11-10 07:52:00,33.0,28.0,-100.00,NW,325,10.0,21.0,81,-99.99,,,-99.99,,2013-11-10 13:52:00,
2013-11-10 08:02:00,33.0,28.0,-100.00,NW,325,10.0,21.0,81,-99.99,,,-99.99,,2013-11-10 14:02:00,
2013-11-10 08:21:00,33.0,28.0,-100.00,NW,325,7.0,14.0,82,-99.99,,,-99.99,,2013-11-10 14:21:00,
2013-11-10 08:32:00,33.0,28.0,-100.00,NW,325,7.0,14.0,82,-99.99,,,-99.99,,2013-11-10 14:32:00,
2013-11-10 08:42:00,33.0,28.0,-100.00,NW,325,7.0,14.0,82,-99.99,,,-99.99,,2013-11-10 14:42:00,
2013-11-10 08:52:00,33.0,28.0,-100.00,NW,325,7.0,14.0,82,-99.99,,,-99.99,,2013-11-10 14:52:00,
2013-11-10 09:02:00,33.0,28.0,-100.00,NW,325,7.0,14.0,82,-99.99,,,-99.99,,2013-11-10 15:02:00,
2013-11-10 09:22:00,33.0,27.0,-100.00,NNW,330,7.0,14.0,79,-99.99,,,-99.99,,2013-11-10 15:22:00,
2013-11-10 09:33:00,33.0,27.0,-100.00,NNW,330,7.0,14.0,79,-99.99,,,-99.99,,2013-11-10 15:33:00,
2013-11-10 09:43:00,33.0,27.0,-100.00,NNW,330,7.0,14.0,79,-99.99,,,-99.99,,2013-11-10 15:43:00,
2013-11-10 09:53:00,33.0,27.0,-100.00,NNW,330,7.0,14.0,79,-99.99,,,-99.99,,2013-11-10 15:53:00,
2013-11-10 10:23:00,34.0,26.0,-100.00,NNW,335,6.0,8.0,72,-99.99,,,-99.99,,2013-11-10 16:23:00,
2013-11-10 10:42:00,34.0,26.0,-100.00,North,0,6.0,11.0,72,-99.99,,,-99.99,,2013-11-10 16:42:00,
2013-11-10 10:53:00,34.0,26.0,-100.00,North,0,6.0,11.0,72,-99.99,,,-99.99,,2013-11-10 16:53:00,
2013-11-10 11:02:00,34.0,26.0,-100.00,North,0,6.0,11.0,72,-99.99,,,-99.99,,2013-11-10 17:02:00,
2013-11-10 12:24:00,35.0,24.0,-100.00,West,280,4.0,11.0,66,-99.99,,,-99.99,,2013-11-10 18:24:00,
2013-11-10 12:32:00,35.0,24.0,-100.00,West,280,4.0,11.0,66,-99.99,,,-99.99,,2013-11-10 18:32:00,
2013-11-10 12:42:00,35.0,24.0,-100.00,West,280,4.0,11.0,66,-99.99,,,-99.99,,2013-11-10 18:42:00,
2013-11-10 12:52:00,35.0,24.0,-100.00,West,280,4.0,11.0,66,-99.99,,,-99.99,,2013-11-10 18:52:00,
2013-11-10 13:01:00,35.0,24.0,-100.00,West,280,4.0,11.0,66,-99.99,,,-99.99,,2013-11-10 19:01:00,
2013-11-10 13:22:00,36.0,24.0,-100.00,WSW,245,5.0,14.0,60,-99.99,,,-99.99,,2013-11-10 19:22:00,
2013-11-10 13:32:00,36.0,24.0,-100.00,WSW,245,5.0,14.0,60,-99.99,,,-99.99,,2013-11-10 19:32:00,
2013-11-10 13:42:00,36.0,24.0,-100.00,WSW,245,5.0,14.0,60,-99.99,,,-99.99,,2013-11-10 19:42:00,
2013-11-10 13:52:00,36.0,24.0,-100.00,WSW,245,5.0,14.0,60,-99.99,,,-99.99,,2013-11-10 19:52:00,
2013-11-10 14:02:00,36.0,24.0,-100.00,WSW,245,5.0,14.0,60,-99.99,,,-99.99,,2013-11-10 20:02:00,
2013-11-10 14:43:00,39.0,23.0,-100.00,WSW,250,3.0,10.0,53,-99.99,,,-99.99,,2013-11-10 20:43:00,
2013-11-10 14:52:00,39.0,23.0,-100.00,WSW,250,3.0,10.0,53,-99.99,,,-99.99,,2013-11-10 20:52:00,
2013-11-10 15:02:00,39.0,23.0,-100.00,WSW,250,3.0,10.0,53,-99.99,,,-99.99,,2013-11-10 21:02:00,
2013-11-10 15:43:00,38.0,22.0,-100.00,WSW,250,6.0,11.0,52,-99.99,,,-99.99,,2013-11-10 21:43:00,
2013-11-10 15:55:00,38.0,22.0,-100.00,WSW,250,6.0,11.0,52,-99.99,,,-99.99,,2013-11-10 21:55:00,
2013-11-10 16:03:00,37.0,22.0,-100.00,WSW,250,2.0,6.0,54,-99.99,,,-99.99,,2013-11-10 22:03:00,
2013-11-10 16:04:00,38.0,22.0,-100.00,WSW,250,6.0,11.0,52,-99.99,,,-99.99,,2013-11-10 22:04:00,
2013-11-10 16:24:00,37.0,22.0,-100.00,WSW,250,2.0,6.0,54,-99.99,,,-99.99,,2013-11-10 22:24:00,
2013-11-10 16:34:00,37.0,22.0,-100.00,WSW,250,2.0,6.0,54,-99.99,,,-99.99,,2013-11-10 22:34:00,
2013-11-10 16:43:00,37.0,22.0,-100.00,WSW,250,2.0,6.0,54,-99.99,,,-99.99,,2013-11-10 22:43:00,
2013-11-10 16:54:00,37.0,22.0,-100.00,WSW,250,2.0,6.0,54,-99.99,,,-99.99,,2013-11-10 22:54:00,
2013-11-10 17:22:00,35.0,23.0,-100.00,SW,230,2.0,7.0,60,-99.99,,,-99.99,,2013-11-10 23:22:00,
2013-11-10 17:34:00,35.0,23.0,-100.00,SW,230,2.0,7.0,60,-99.99,,,-99.99,,2013-11-10 23:34:00,
2013-11-10 17:43:00,35.0,23.0,-100.00,SW,230,2.0,7.0,60,-99.99,,,-99.99,,2013-11-10 23:43:00,
2013-11-10 17:53:00,35.0,23.0,-100.00,SW,230,2.0,7.0,60,-99.99,,,-99.99,,2013-11-10 23:53:00,
2013-11-10 18:02:00,35.0,23.0,-100.00,SW,230,2.0,7.0,60,-99.99,,,-99.99,,2013-11-11 00:02:00,
2013-11-10 18:22:00,36.0,23.0,-100.00,SSE,165,1.0,11.0,58,-99.99,,,-99.99,,2013-11-11 00:22:00,
2013-11-10 18:32:00,36.0,23.0,-100.00,SSE,165,1.0,11.0,58,-99.99,,,-99.99,,2013-11-11 00:32:00,
2013-11-10 18:42:00,36.0,23.0,-100.00,SSE,165,1.0,11.0,58,-99.99,,,-99.99,,2013-11-11 00:42:00,
2013-11-10 18:52:00,36.0,23.0,-100.00,SSE,165,1.0,11.0,58,-99.99,,,-99.99,,2013-11-11 00:52:00,
2013-11-10 19:02:00,36.0,23.0,-100.00,SSE,165,1.0,11.0,58,-99.99,,,-99.99,,2013-11-11 01:02:00,
2013-11-10 19:23:00,36.0,24.0,-100.00,SW,230,2.0,12.0,61,-99.99,,,-99.99,,2013-11-11 01:23:00,
2013-11-10 19:32:00,36.0,24.0,-100.00,SW,230,2.0,12.0,61,-99.99,,,-99.99,,2013-11-11 01:32:00,
2013-11-10 19:42:00,36.0,24.0,-100.00,SW,230,2.0,12.0,61,-99.99,,,-99.99,,2013-11-11 01:42:00,
2013-11-10 19:52:00,36.0,24.0,-100.00,SW,230,2.0,12.0,61,-99.99,,,-99.99,,2013-11-11 01:52:00,
2013-11-10 20:02:00,36.0,24.0,-100.00,SW,230,2.0,12.0,61,-99.99,,,-99.99,,2013-11-11 02:02:00,
2013-11-10 20:22:00,36.0,25.0,-100.00,West,270,5.0,9.0,64,-99.99,,,-99.99,,2013-11-11 02:22:00,
2013-11-10 20:32:00,36.0,25.0,-100.00,West,270,5.0,9.0,64,-99.99,,,-99.99,,2013-11-11 02:32:00,
2013-11-10 20:42:00,36.0,25.0,-100.00,West,270,5.0,9.0,64,-99.99,,,-99.99,,2013-11-11 02:42:00,
2013-11-10 20:52:00,36.0,25.0,-100.00,West,270,5.0,9.0,64,-99.99,,,-99.99,,2013-11-11 02:52:00,
2013-11-10 21:02:00,36.0,25.0,-100.00,West,270,5.0,9.0,64,-99.99,,,-99.99,,2013-11-11 03:02:00,
2013-11-10 22:02:00,36.0,25.0,-100.00,NW,305,3.0,13.0,64,-99.99,,,-99.99,,2013-11-11 04:02:00,
2013-11-10 22:24:00,36.0,25.0,-100.00,NW,305,3.0,13.0,64,-99.99,,,-99.99,,2013-11-11 04:24:00,
2013-11-10 22:34:00,36.0,25.0,-100.00,NW,305,3.0,13.0,64,-99.99,,,-99.99,,2013-11-11 04:34:00,
2013-11-10 22:43:00,36.0,25.0,-100.00,NW,305,3.0,13.0,64,-99.99,,,-99.99,,2013-11-11 04:43:00,
2013-11-10 22:53:00,36.0,25.0,-100.00,NW,305,3.0,13.0,64,-99.99,,,-99.99,,2013-11-11 04:53:00,
2013-11-10 23:03:00,33.0,29.0,-100.00,West,265,2.0,8.0,84,-99.99,,,-99.99,,2013-11-11 05:03:00,
2013-11-10 23:23:00,33.0,29.0,-100.00,West,265,2.0,8.0,84,-99.99,,,-99.99,,2013-11-11 05:23:00,
2013-11-10 23:34:00,33.0,29.0,-100.00,West,265,2.0,8.0,84,-99.99,,,-99.99,,2013-11-11 05:34:00,
2013-11-10 23:44:00,33.0,29.0,-100.00,West,265,2.0,8.0,84,-99.99,,,-99.99,,2013-11-11 05:44:00,
2013-11-10 23:54:00,33.0,29.0,-100.00,West,265,2.0,8.0,84,-99.99,,,-99.99,,2013-11-11 05:54:00,